User: anonymous   Login
Location: Unspecified
(0.0000°N, 0.0000°E)
Time: 11:26:21
(UTC+00:00)
Language:

Tiangong 1 - Orbit

View from above orbital plane
View from above orbital plane
View from above satellite
View from above satellite

Ground track
Ground track

The orbit data is extracted from the following two-line orbital elements,

1 37820U 11053A   17148.90977146 +.00028829 +00000-0 +16488-3 0  9993
2 37820 042.7618 317.9776 0019981 299.1172 188.3405 15.77973367324923
Epoch (UTC): 28 May 2017 21:50:04
Eccentricity: 0.0019981
inclination: 42.7618°
perigee height: 323 km
apogee height: 349 km
right ascension of ascending node: 317.9776°
argument of perigee: 299.1172°
revolutions per day: 15.77973367
mean anomaly at epoch: 188.3405°
orbit number at epoch: 32492

The dashed part of the orbit path shows where the satellite is in the earth's shadow,  

DLR